TimeEDT,TemperatureF,Dew PointF,Humidity,Sea Level PressureIn,VisibilityMPH,Wind Direction,Wind SpeedMPH,Gust SpeedMPH,PrecipitationIn,Events,Conditions,WindDirDegrees,DateUTC
12:14 AM,46.4,42.8,87,29.34,7.0,West,23.0,31.1,N/A,Rain,Rain,270,2011-10-15 04:14:00
12:35 AM,46.4,42.8,87,29.33,7.0,West,24.2,36.8,N/A,,Drizzle,270,2011-10-15 04:35:00
12:54 AM,46.4,42.8,87,29.33,7.0,West,24.2,34.5,N/A,Rain,Rain,280,2011-10-15 04:54:00
1:14 AM,46.4,42.8,87,29.33,7.0,West,24.2,36.8,N/A,Rain,Rain,280,2011-10-15 05:14:00
1:35 AM,46.4,42.8,87,29.32,7.0,West,27.6,33.4,N/A,Rain,Light Rain,270,2011-10-15 05:35:00
2:14 AM,46.4,41.0,81,29.32,7.0,West,26.5,36.8,N/A,Rain,Light Rain,280,2011-10-15 06:14:00
2:35 AM,44.6,41.0,87,29.32,7.0,West,29.9,36.8,N/A,Rain,Light Rain,270,2011-10-15 06:35:00
2:54 AM,44.6,41.0,87,29.32,7.0,West,29.9,36.8,N/A,,Drizzle,270,2011-10-15 06:54:00
3:15 AM,46.4,41.0,81,29.32,10.0,West,26.5,33.4,N/A,,Light Drizzle,280,2011-10-15 07:15:00
3:34 AM,44.6,41.0,87,29.32,7.0,West,27.6,36.8,N/A,,Light Drizzle,280,2011-10-15 07:34:00
3:54 AM,44.6,42.8,93,29.32,7.0,West,31.1,34.5,N/A,Rain,Light Rain,280,2011-10-15 07:54:00
4:15 AM,44.6,42.8,93,29.32,7.0,West,28.8,34.5,N/A,Rain,Light Rain,280,2011-10-15 08:15:00
4:34 AM,44.6,41.0,87,29.32,7.0,West,24.2,40.3,N/A,Rain,Light Rain,280,2011-10-15 08:34:00
4:55 AM,44.6,41.0,87,29.33,7.0,West,31.1,41.4,N/A,Rain,Light Rain,280,2011-10-15 08:55:00
5:14 AM,44.6,41.0,87,29.33,7.0,West,26.5,40.3,N/A,Rain,Rain,280,2011-10-15 09:14:00
5:34 AM,44.6,41.0,87,29.34,7.0,West,29.9,43.7,N/A,Rain,Rain,280,2011-10-15 09:34:00
5:55 AM,44.6,41.0,87,29.34,7.0,West,33.4,43.7,N/A,Rain,Light Rain,280,2011-10-15 09:55:00
6:14 AM,44.6,41.0,87,29.35,5.0,WNW,28.8,41.4,N/A,Rain,Rain,290,2011-10-15 10:14:00
6:34 AM,44.6,41.0,87,29.35,5.0,West,31.1,39.1,N/A,Rain,Light Rain,280,2011-10-15 10:34:00
6:55 AM,44.6,41.0,87,29.36,7.0,West,32.2,42.6,N/A,Rain,Light Rain,280,2011-10-15 10:55:00
7:14 AM,44.6,41.0,87,29.36,5.0,West,29.9,41.4,N/A,Rain,Light Rain,280,2011-10-15 11:14:00
7:34 AM,44.6,41.0,87,29.37,5.0,West,31.1,39.1,N/A,Rain,Rain,280,2011-10-15 11:34:00
7:55 AM,44.6,41.0,87,29.37,7.0,WNW,29.9,41.4,N/A,Rain,Rain,290,2011-10-15 11:55:00
8:14 AM,44.6,41.0,87,29.37,5.0,WNW,31.1,41.4,N/A,Rain,Rain,290,2011-10-15 12:14:00
8:34 AM,44.6,41.0,87,29.38,5.0,WNW,27.6,38.0,N/A,Rain,Light Rain,290,2011-10-15 12:34:00
9:14 AM,44.6,41.0,87,29.40,5.0,WNW,28.8,39.1,N/A,Rain,Light Rain,290,2011-10-15 13:14:00
9:34 AM,44.6,42.8,93,29.41,5.0,West,27.6,38.0,N/A,Rain,Light Rain,280,2011-10-15 13:34:00
9:55 AM,44.6,42.8,93,29.42,5.0,WNW,31.1,43.7,N/A,Rain,Light Rain,290,2011-10-15 13:55:00
10:14 AM,44.6,41.0,87,29.42,7.0,West,31.1,39.1,N/A,Rain,Light Rain,280,2011-10-15 14:14:00
10:35 AM,44.6,41.0,87,29.43,10.0,West,27.6,38.0,N/A,Rain,Light Rain,280,2011-10-15 14:35:00
10:55 AM,44.6,41.0,87,29.44,10.0,WNW,26.5,38.0,N/A,Rain,Light Rain,290,2011-10-15 14:55:00
11:14 AM,44.6,41.0,87,29.44,10.0,West,28.8,39.1,N/A,Rain,Rain,280,2011-10-15 15:14:00
11:35 AM,44.6,39.2,81,29.45,10.0,West,34.5,42.6,N/A,Rain,Light Rain,280,2011-10-15 15:35:00
11:54 AM,44.6,39.2,81,29.46,10.0,WNW,31.1,39.1,N/A,Rain,Light Rain,290,2011-10-15 15:54:00
12:12 PM,46.4,39.2,76,29.47,10.0,West,28.8,40.3,N/A,Rain,Light Rain,280,2011-10-15 16:12:00
12:35 PM,46.4,39.2,76,29.48,10.0,WNW,26.5,46.0,N/A,,Overcast,290,2011-10-15 16:35:00
12:54 PM,46.4,39.2,76,29.49,10.0,WNW,26.5,41.4,N/A,,Light Drizzle,290,2011-10-15 16:54:00
1:14 PM,46.4,37.4,71,29.49,10.0,West,24.2,42.6,N/A,,Overcast,280,2011-10-15 17:14:00
1:34 PM,48.2,37.4,66,29.49,10.0,West,29.9,41.4,N/A,,Overcast,280,2011-10-15 17:34:00
1:54 PM,48.2,37.4,66,29.50,10.0,WNW,34.5,41.4,N/A,,Overcast,290,2011-10-15 17:54:00
2:15 PM,48.2,37.4,66,29.51,10.0,West,28.8,35.7,N/A,,Overcast,280,2011-10-15 18:15:00
2:34 PM,48.2,39.2,71,29.52,10.0,West,26.5,40.3,N/A,,Overcast,280,2011-10-15 18:34:00
2:54 PM,48.2,37.4,66,29.52,10.0,West,28.8,35.7,N/A,,Overcast,280,2011-10-15 18:54:00
3:15 PM,48.2,37.4,66,29.53,10.0,West,19.6,36.8,N/A,Rain,Light Rain,280,2011-10-15 19:15:00
3:34 PM,50.0,37.4,62,29.54,10.0,WNW,24.2,34.5,N/A,,Overcast,290,2011-10-15 19:34:00
3:54 PM,48.2,37.4,66,29.55,10.0,West,29.9,40.3,N/A,,Overcast,270,2011-10-15 19:54:00
4:14 PM,48.2,37.4,66,29.55,10.0,West,32.2,41.4,N/A,,Overcast,270,2011-10-15 20:14:00
4:34 PM,50.0,37.4,62,29.56,10.0,West,27.6,41.4,N/A,,Overcast,280,2011-10-15 20:34:00
4:55 PM,50.0,35.6,58,29.57,10.0,West,24.2,36.8,N/A,,Overcast,280,2011-10-15 20:55:00
5:14 PM,50.0,35.6,58,29.57,10.0,West,35.7,40.3,N/A,,Overcast,280,2011-10-15 21:14:00
5:34 PM,50.0,35.6,58,29.58,10.0,WNW,25.3,34.5,N/A,,Overcast,290,2011-10-15 21:34:00
5:55 PM,50.0,35.6,58,29.59,10.0,West,25.3,31.1,N/A,,Overcast,280,2011-10-15 21:55:00
6:14 PM,50.0,35.6,58,29.59,10.0,WNW,21.9,29.9,N/A,,Overcast,290,2011-10-15 22:14:00
6:34 PM,50.0,35.6,58,29.60,10.0,West,20.7,33.4,N/A,,Overcast,280,2011-10-15 22:34:00
6:55 PM,50.0,33.8,54,29.61,10.0,West,25.3,33.4,N/A,,Overcast,280,2011-10-15 22:55:00
7:14 PM,50.0,33.8,54,29.62,10.0,West,28.8,35.7,N/A,,Overcast,270,2011-10-15 23:14:00
7:34 PM,50.0,33.8,54,29.63,10.0,West,27.6,36.8,N/A,,Overcast,280,2011-10-15 23:34:00
8:14 PM,50.0,35.6,58,29.64,10.0,West,23.0,28.8,N/A,,Overcast,280,2011-10-16 00:14:00
8:34 PM,50.0,33.8,54,29.64,10.0,West,23.0,34.5,N/A,,Overcast,280,2011-10-16 00:34:00
8:55 PM,50.0,35.6,58,29.65,10.0,West,26.5,39.1,N/A,,Overcast,280,2011-10-16 00:55:00
9:14 PM,50.0,33.8,54,29.66,10.0,West,26.5,36.8,N/A,,Overcast,280,2011-10-16 01:14:00
9:35 PM,50.0,35.6,58,29.66,10.0,WNW,26.5,29.9,N/A,,Overcast,290,2011-10-16 01:35:00
9:55 PM,50.0,33.8,54,29.66,10.0,West,23.0,32.2,N/A,,Overcast,280,2011-10-16 01:55:00
10:14 PM,50.0,35.6,58,29.66,10.0,West,20.7,29.9,N/A,,Overcast,280,2011-10-16 02:14:00
10:55 PM,48.2,37.4,66,29.66,10.0,West,17.3,20.7,N/A,,Clear,270,2011-10-16 02:55:00
11:14 PM,48.2,37.4,66,29.66,10.0,West,10.4,-,N/A,,Clear,270,2011-10-16 03:14:00
11:35 PM,50.0,37.4,62,29.66,10.0,West,15.0,26.5,N/A,,Clear,270,2011-10-16 03:35:00